Back to catalog

STARLINK-4364

AliveCommunicationsSSO
NORAD 53230·PAYLOAD·🇺🇸 United States

Launched Jul 22, 2022 from Vandenberg Space Force Base

Loading…

Next Passes (next 24 hours)

TLE

FreshSource: CelesTrak SupGP

Epoch: Sep 14, 2026, 21:51 UTC

1 53230C 22084AT  26257.91090278 -.00016280  00000+0 -50542-3 0  2571
2 53230  97.2840 313.7003 0001324  86.8188  34.4482 15.33444679    13

Track STARLINK-4364 in real time with AllMySat

Download on the App Store